EW5523 Weather Reports


time (UTC)temp
F
wind
direction
speed
knots
gust
knots
rain 1hr
in
rain 24hr
in
rain mn
in
humidity
%
barometer
mb
20260905230037 58 155 0.0 0.0 0.00 0.00 0.00 94 1004.0
20260905224606 58 160 0.0 1.7 0.00 0.00 0.00 94 1004.1
20260905223037 58 146 0.0 0.9 0.00 0.00 0.00 93 1004.4
20260905221533 58 143 0.0 0.0 0.00 0.00 0.00 93 1004.4
20260905220033 58 160 0.0 0.0 0.00 0.00 0.00 93 1004.7
20260905214536 58 161 0.0 0.0 0.00 0.00 0.00 93 1004.8
20260905213032 58 206 0.0 0.0 0.00 0.00 0.00 92 1005.0
20260905211541 58 206 0.0 0.0 0.00 0.00 0.00 91 1005.2
20260905210039 59 206 0.0 0.0 0.00 0.00 0.00 90 1005.2
20260905204525 59 227 0.0 0.0 0.00 0.00 0.00 89 1005.7
20260905203026 60 287 0.0 3.5 0.00 0.00 0.00 86 1005.6
20260905201522 61 274 1.7 9.6 0.00 0.00 0.00 82 1005.9
20260905200022 63 197 0.0 0.9 0.00 0.00 0.00 72 1004.5
20260905194518 63 156 0.0 0.0 0.00 0.00 0.00 71 1004.1
20260905193012 63 152 0.0 0.0 0.00 0.00 0.00 70 1004.3
20260905191511 63 148 0.0 0.0 0.00 0.00 0.00 69 1004.6
20260905190009 64 124 0.0 0.0 0.00 0.00 0.00 68 1004.8
20260905184515 64 166 0.0 0.0 0.00 0.00 0.00 68 1005.1
20260905183004 64 179 0.0 0.0 0.00 0.00 0.00 68 1005.4
20260905181502 64 152 0.0 2.6 0.00 0.00 0.00 67 1005.5
20260905180001 64 155 0.0 0.0 0.00 0.00 0.00 67 1005.7
20260905174600 64 147 0.0 1.7 0.00 0.00 0.00 67 1005.8
20260905173121 65 149 0.0 0.9 0.00 0.00 0.00 66 1006.0
20260905171557 65 153 0.0 0.0 0.00 0.00 0.00 65 1006.1
20260905170109 65 141 0.0 0.0 0.00 0.00 0.00 65 1006.1
20260905164603 65 141 0.0 0.0 0.00 0.00 0.00 65 1006.3
20260905163053 66 156 0.0 0.9 0.00 0.00 0.00 64 1006.4
20260905161605 66 139 0.0 0.9 0.00 0.00 0.00 64 1006.5
20260905160051 66 164 0.0 1.7 0.00 0.00 0.00 64 1006.6
20260905154552 66 153 0.0 0.9 0.00 0.00 0.00 65 1006.7
20260905153050 67 162 0.0 0.9 0.00 0.00 0.00 65 1006.7
20260905151550 67 163 0.0 0.9 0.00 0.00 0.00 64 1006.6
20260905150052 68 162 0.0 0.0 0.00 0.00 0.00 65 1006.6
20260905144549 68 160 0.0 0.9 0.00 0.00 0.00 64 1006.6
20260905143048 69 163 0.0 0.0 0.00 0.00 0.00 62 1006.6
20260905141547 70 163 0.0 0.0 0.00 0.00 0.00 61 1006.7
20260905140045 71 164 0.0 0.0 0.00 0.00 0.00 59 1006.8
20260905134544 72 201 0.0 0.0 0.00 0.00 0.00 58 1007.0
20260905133043 72 147 0.0 0.9 0.00 0.00 0.00 55 1007.0
20260905131541 73 119 0.0 1.7 0.00 0.00 0.00 55 1007.2
20260905130041 73 135 0.0 0.9 0.00 0.00 0.00 55 1007.4
20260905124539 72 189 0.0 6.1 0.00 0.00 0.00 55 1007.5
20260905123043 73 137 0.9 6.1 0.00 0.00 0.00 54 1007.7
20260905121540 73 157 0.0 4.3 0.00 0.00 0.00 55 1007.8
20260905120036 73 141 1.7 11.3 0.00 0.00 0.00 54 1007.8
20260905114535 73 125 0.0 6.1 0.00 0.00 0.00 55 1007.9
20260905113033 73 154 0.0 8.7 0.00 0.00 0.00 54 1008.1
20260905111534 73 213 0.9 8.7 0.00 0.00 0.00 54 1008.1
20260905110031 73 129 0.0 5.2 0.00 0.00 0.00 55 1008.2
20260905104531 73 178 0.9 7.0 0.00 0.00 0.00 55 1008.2
20260905103028 73 135 0.9 7.8 0.00 0.00 0.00 55 1008.3
20260905101531 73 200 0.0 11.3 0.00 0.00 0.00 55 1008.4
20260905100055 73 137 0.9 9.6 0.00 0.00 0.00 56 1008.4
20260905094524 72 185 0.0 7.8 0.00 0.00 0.00 56 1008.5
20260905093023 73 166 0.0 7.0 0.00 0.00 0.00 56 1008.6
20260905091521 72 206 0.0 7.0 0.00 0.00 0.00 57 1008.5
20260905090017 72 146 0.0 6.1 0.00 0.00 0.00 60 1008.7
20260905084514 70 139 0.9 5.2 0.00 0.00 0.00 59 1008.7
20260905083010 69 155 0.0 4.3 0.00 0.00 0.00 62 1009.0
20260905081506 67 141 0.0 2.6 0.00 0.00 0.00 63 1009.2
20260905080003 66 206 0.0 0.9 0.00 0.00 0.00 66 1009.3
20260905074503 66 162 0.0 6.1 0.00 0.00 0.00 65 1009.2
20260905073101 66 161 0.0 4.3 0.00 0.00 0.00 65 1009.4
20260905071608 66 153 0.0 1.7 0.00 0.00 0.00 65 1009.7
20260905070059 66 168 0.0 0.9 0.00 0.00 0.00 66 1009.6
20260905064616 65 183 0.0 0.9 0.00 0.00 0.00 65 1009.7
20260905063056 66 169 0.0 1.7 0.00 0.00 0.00 64 1009.5
20260905061603 65 143 0.0 3.5 0.00 0.00 0.00 65 1009.7
20260905060052 65 170 0.0 4.3 0.00 0.00 0.00 67 1009.8
20260905054634 63 135 0.0 0.0 0.00 0.00 0.00 73 1010.0
20260905053046 62 140 0.0 0.0 0.00 0.00 0.00 76 1010.1
20260905051541 61 116 0.0 0.0 0.00 0.00 0.00 79 1010.2
20260905050040 60 116 0.0 0.0 0.00 0.00 0.00 82 1010.1
20260905044539 60 116 0.0 0.0 0.00 0.00 0.00 79 1010.2
20260905043037 60 116 0.0 0.0 0.00 0.00 0.00 80 1010.3
20260905041538 60 116 0.0 0.0 0.00 0.00 0.00 83 1010.3
20260905040037 59 108 0.0 0.0 0.00 0.00 0.00 89 1010.2
20260905034528 58 81 0.0 0.0 0.00 0.00 0.00 91 1010.1
20260905033027 57 80 0.0 0.0 0.00 0.00 0.00 91 1010.2
20260905031526 57 80 0.0 0.0 0.00 0.00 0.00 92 1010.2
20260905030032 57 79 0.0 0.0 0.00 0.00 0.00 93 1010.4
20260905024524 57 76 0.0 0.0 0.00 0.00 0.00 93 1010.3
20260905023023 56 50 0.0 0.0 0.00 0.00 0.00 94 1010.5
20260905021527 56 45 0.0 0.0 0.00 0.00 0.00 94 1010.6
20260905020019 56 311 0.0 0.0 0.00 0.00 0.00 94 1010.4
20260905014517 56 305 0.0 0.0 0.00 0.00 0.00 93 1010.5
20260905013016 56 287 0.0 0.0 0.00 0.00 0.00 94 1010.6
20260905011520 56 286 0.0 0.0 0.00 0.00 0.00 93 1010.7
20260905010018 56 286 0.0 0.0 0.00 0.00 0.00 93 1010.8
20260905004513 56 283 0.0 0.9 0.00 0.00 0.00 94 1011.0
20260905003015 56 83 0.0 0.0 0.00 0.00 0.00 93 1010.9
20260905001512 56 79 0.0 0.0 0.00 0.00 0.00 93 1011.0
20260905000008 56 116 0.0 0.0 0.00 0.00 0.00 93 1011.4
20260904234508 56 226 0.0 0.0 0.00 0.00 0.00 94 1011.4
20260904233006 56 226 0.0 0.0 0.00 0.00 0.00 93 1011.5
20260904231509 57 226 0.0 0.0 0.00 0.00 0.00 93 1011.6